Погода в Климковице

Чехия     49°47′12″N   18°07′43″E
темп.,
°C
ветер,
м/с
пор.,
м/с
влажн.,
%
обл.,
%
осадки,
мм/ч
давл.,
гПа
погр.,
м
2 марта, вт
вт201:00+1ююз11890 0.0 103722
04:00+1ююз12860 0.0 103525
07:00+1ююз33840 0.0 103658
10:00+7юз47690 0.0 1035304
13:00+10юз46580 0.0 1034455
16:00+9юз34630 0.0 1033261
19:00+5юз23750 0.0 103335
22:00+4юз23770 0.0 103432
3 марта, ср
ср301:00+3ююз22750 0.0 103423
04:00+2ююз23750 0.0 103229
07:00+2ююз33730 0.0 103243
10:00+8юз35590 0.0 1030261
13:00+11зюз575414 0.0 1029466
16:00+10зюз695859 0.0 1026464
19:00+6юз487330 0.0 1026189
22:00+5ююз35800 0.0 1025128
4 марта, чт
чт401:00+4ююз35830 0.0 1023111
04:00+4ююз478451 0.0 1021135
07:00+4юз598272 0.0 1020213
10:00+9юз6106536 0.0 1018458
13:00+11зюз696018 0.0 1015690
16:00+11юз596380 0.0 1013762
19:00+8юз347590 0.0 101397
22:00+7з2580100 0.4 1012217
5 марта, пт
пт501:00+5св3493100 4.9 1012321
04:00+5ссв4692100 1.4 1011378
07:00+3ссв4696100 3.3 1013435
10:00+1ссв6996100 2.2 1015478
13:00+2с5875100 3.0 1017936
16:00+2ссв5859100 0.1 10191466
19:000с496094 0.2 1023539
22:00−1с25680 0.0 1025203
6 марта, сб
сб601:00−1ссз387316 0.1 1027489
04:00−2ссз497519 0.0 1028540
07:00−3ссз598221 0.0 1030705
10:000с465457 0.1 10311401
13:00+1с464476 0.2 10311774
16:00+1ссз3547100 0.0 10301671
19:00−1зсз236166 0.0 103195
22:00−1юз23610 0.0 103269